contact:dominique.lefevre@mio.osupytheas.fr, maurice.libes@osupytheas.fr, didier.mallarino@osupytheas.fr
Project:EMSO http://www.emso-fr.org/EMSO-France
Depth: 2436.0 m
Title:EMSO Ligure Ouest : Data MII capteur AQUADOPP
Date,Latitude,Longitude,X_East,Y_North,Z_Up,Amplitude_X,Amplitude_Y,Amplitude_Z,Batterie,SoundSpeed,Heading,Pitch,Roll,Pressure,TIS,Speed,Direction
, degrees North, degrees East, m.s-1, m.s-1,m.s-1, 1, 1, 1, Volt, m.s-1, degree, degree, degree, dbar, degree_C, m.s-1, degree
2020-07-21T00:04:03,42.805,6.029,0.016,0.002,0.012,105.0,108.0,101.0,13.3,1505.3,327.6,-0.7,1.8,2470.462,13.32,0.016,82.9
2020-07-21T00:07:03,42.805,6.029,0.021,0.017,0.036,104.0,108.0,101.0,13.3,1505.3,324.6,-0.7,1.8,2470.397,13.32,0.027,51.0
2020-07-21T00:10:03,42.805,6.029,-0.004,0.014,0.009,105.0,108.0,102.0,13.4,1505.3,324.4,-0.7,1.8,2470.422,13.33,0.014,344.1
2020-07-21T00:13:03,42.805,6.029,-0.005,0.013,-0.035,104.0,107.0,101.0,13.4,1505.3,325.6,-0.7,1.8,2470.386,13.33,0.013,339.0
2020-07-21T00:16:03,42.805,6.029,-0.011,0.013,-0.006,105.0,107.0,101.0,13.3,1505.3,327.4,-0.7,1.8,2470.373,13.33,0.017,319.8
2020-07-21T00:19:03,42.805,6.029,0.016,0.014,0.025,104.0,107.0,101.0,13.3,1505.3,323.6,-0.7,1.8,2470.393,13.33,0.021,48.8
2020-07-21T00:22:02,42.805,6.029,-0.025,0.037,-0.003,104.0,108.0,102.0,13.4,1505.3,326.1,-0.7,1.9,2470.352,13.33,0.044,326.0
2020-07-21T00:25:03,42.805,6.029,-0.007,0.007,-0.019,105.0,108.0,101.0,13.4,1505.3,324.6,-0.7,1.9,2470.378,13.33,0.009,315.0
2020-07-21T00:28:03,42.805,6.029,-0.018,0.038,0.026,103.0,113.0,102.0,13.4,1505.3,323.8,-0.7,1.8,2470.414,13.33,0.042,334.7
2020-07-21T00:31:03,42.805,6.029,0.005,0.005,0.019,106.0,108.0,102.0,13.4,1505.3,326.5,-0.7,1.8,2470.356,13.33,0.007,45.0
2020-07-21T00:34:03,42.805,6.029,-0.011,0.013,0.009,106.0,106.0,100.0,13.3,1505.3,324.6,-0.7,1.8,2470.35,13.33,0.017,319.8
2020-07-21T00:37:03,42.805,6.029,0.006,0.026,0.005,103.0,109.0,101.0,13.3,1505.3,328.1,-0.7,1.9,2470.4,13.33,0.026,13.0
2020-07-21T00:40:03,42.805,6.029,-0.042,0.009,-0.032,103.0,107.0,101.0,13.4,1505.3,322.9,-0.7,1.8,2470.346,13.33,0.042,282.1
2020-07-21T00:43:03,42.805,6.029,0.007,0.006,0.002,103.0,107.0,101.0,13.4,1505.4,324.9,-0.7,1.8,2470.333,13.34,0.009,49.4
2020-07-21T00:46:03,42.805,6.029,-0.008,0.012,-0.032,104.0,108.0,101.0,13.4,1505.4,326.8,-0.7,1.8,2470.374,13.34,0.014,326.3
2020-07-21T00:49:03,42.805,6.029,-0.002,0.015,-0.001,103.0,108.0,101.0,13.4,1505.4,326.3,-0.7,1.8,2470.353,13.34,0.015,352.4
2020-07-21T00:52:03,42.805,6.029,-0.005,0.008,-0.048,103.0,108.0,101.0,13.3,1505.4,326.3,-0.7,1.8,2470.359,13.34,0.009,328.0
2020-07-21T00:55:03,42.805,6.029,-0.037,0.023,-0.027,103.0,108.0,101.0,13.3,1505.4,326.5,-0.7,1.8,2470.383,13.34,0.043,301.9
2020-07-21T00:58:03,42.805,6.029,-0.008,0.026,-0.002,106.0,107.0,101.0,13.4,1505.4,324.6,-0.7,1.8,2470.401,13.34,0.027,342.9
2020-07-21T01:04:03,42.805,6.029,0.006,-0.017,-0.06,105.0,108.0,103.0,13.4,1505.3,324.6,-0.7,1.8,2470.412,13.32,0.018,160.6
2020-07-21T01:07:03,42.805,6.029,-0.027,0.006,-0.029,103.0,107.0,101.0,13.3,1505.3,327.8,-0.7,1.8,2470.367,13.33,0.027,282.5
2020-07-21T01:10:03,42.805,6.029,-0.008,0.019,-0.026,103.0,107.0,101.0,13.3,1505.3,323.6,-0.7,1.8,2470.378,13.33,0.02,337.2
2020-07-21T01:13:03,42.805,6.029,0.01,0.009,0.028,105.0,107.0,101.0,13.4,1505.3,324.7,-0.7,1.8,2470.406,13.33,0.013,48.0
2020-07-21T01:16:03,42.805,6.029,-0.024,0.0,0.001,105.0,108.0,100.0,13.4,1505.3,328.5,-0.7,1.8,2470.341,13.33,0.024,270.0
2020-07-21T01:19:03,42.805,6.029,-0.036,0.025,-0.003,104.0,109.0,100.0,13.4,1505.3,322.9,-0.7,1.8,2470.374,13.33,0.043,304.8
2020-07-21T01:22:03,42.805,6.029,-0.019,0.013,-0.035,104.0,108.0,101.0,13.4,1505.4,327.9,-0.7,1.8,2470.364,13.34,0.023,304.4
2020-07-21T01:25:03,42.805,6.029,-0.035,0.002,-0.054,105.0,109.0,101.0,13.4,1505.4,326.3,-0.7,1.8,2470.377,13.34,0.035,273.3
2020-07-21T01:28:03,42.805,6.029,-0.018,0.011,0.001,103.0,108.0,101.0,13.4,1505.4,328.2,-0.7,1.8,2470.375,13.34,0.021,301.4
2020-07-21T01:31:03,42.805,6.029,-0.005,0.012,-0.002,104.0,107.0,101.0,13.4,1505.4,324.4,-0.7,1.8,2470.323,13.34,0.013,337.4
2020-07-21T01:34:03,42.805,6.029,-0.011,0.027,0.013,103.0,107.0,101.0,13.4,1505.4,327.8,-0.7,1.8,2470.359,13.34,0.029,337.8
2020-07-21T01:37:03,42.805,6.029,-0.006,0.003,-0.004,104.0,107.0,100.0,13.4,1505.4,326.2,-0.7,1.8,2470.322,13.34,0.006,296.6
2020-07-21T01:40:03,42.805,6.029,0.009,0.017,-0.01,101.0,107.0,101.0,13.3,1505.4,325.3,-0.7,1.8,2470.329,13.34,0.019,27.9
2020-07-21T01:43:03,42.805,6.029,-0.023,0.014,0.0,103.0,108.0,100.0,13.4,1505.4,325.6,-0.8,1.8,2470.368,13.34,0.026,301.3
2020-07-21T01:46:03,42.805,6.029,-0.001,0.02,-0.002,104.0,107.0,100.0,13.4,1505.4,327.2,-0.7,1.8,2470.357,13.34,0.02,357.1
2020-07-21T01:49:03,42.805,6.029,-0.036,0.02,-0.026,104.0,108.0,101.0,13.4,1505.4,324.0,-0.7,1.9,2470.356,13.34,0.041,299.1
2020-07-21T01:52:03,42.805,6.029,-0.021,0.02,-0.016,104.0,109.0,99.0,13.4,1505.4,326.1,-0.7,1.8,2470.34,13.34,0.028,313.6
2020-07-21T01:55:03,42.805,6.029,-0.045,-0.008,-0.02,101.0,108.0,101.0,13.4,1505.4,327.5,-0.7,1.8,2470.339,13.34,0.045,259.9
2020-07-21T01:58:03,42.805,6.029,-0.023,0.018,-0.004,104.0,108.0,101.0,13.3,1505.4,326.4,-0.7,1.9,2470.36,13.34,0.029,308.0
2020-07-21T02:04:03,42.805,6.029,-0.022,-0.011,-0.053,103.0,107.0,101.0,13.4,1505.3,326.3,-0.7,1.8,2470.357,13.32,0.024,243.4
2020-07-21T02:07:03,42.805,6.029,-0.002,0.004,-0.018,105.0,107.0,101.0,13.4,1505.3,324.4,-0.7,1.8,2470.336,13.33,0.004,333.4
2020-07-21T02:10:03,42.805,6.029,-0.039,0.022,-0.025,103.0,108.0,100.0,13.4,1505.3,325.5,-0.7,1.8,2470.367,13.33,0.044,299.4
2020-07-21T02:13:03,42.805,6.029,0.012,0.003,0.007,104.0,106.0,101.0,13.3,1505.3,323.1,-0.7,1.8,2470.351,13.33,0.012,76.0
2020-07-21T02:16:03,42.805,6.029,-0.006,0.011,-0.04,105.0,107.0,100.0,13.3,1505.3,326.6,-0.7,1.9,2470.328,13.33,0.012,331.4
2020-07-21T02:19:03,42.805,6.029,-0.013,-0.011,-0.048,104.0,106.0,102.0,13.4,1505.4,324.8,-0.7,1.9,2470.331,13.34,0.017,229.8
2020-07-21T02:22:03,42.805,6.029,-0.022,-0.007,-0.07,104.0,108.0,101.0,13.4,1505.4,326.4,-0.7,1.8,2470.36,13.34,0.023,252.4
2020-07-21T02:25:03,42.805,6.029,-0.014,0.014,-0.013,103.0,107.0,100.0,13.3,1505.4,327.9,-0.7,1.9,2470.316,13.34,0.019,315.0
2020-07-21T02:28:03,42.805,6.029,-0.019,0.015,-0.039,103.0,105.0,100.0,13.4,1505.4,324.9,-0.7,1.8,2470.293,13.34,0.024,308.3
2020-07-21T02:31:03,42.805,6.029,0.0,-0.015,-0.044,103.0,106.0,101.0,13.4,1505.4,323.9,-0.7,1.9,2470.314,13.34,0.015,180.0
2020-07-21T02:34:03,42.805,6.029,-0.042,-0.011,-0.018,102.0,106.0,101.0,13.4,1505.4,323.8,-0.7,1.8,2470.341,13.34,0.043,255.3
2020-07-21T02:37:03,42.805,6.029,-0.006,-0.01,-0.023,105.0,106.0,102.0,13.3,1505.4,326.9,-0.7,1.8,2470.321,13.34,0.011,211.0
2020-07-21T02:40:03,42.805,6.029,-0.047,0.009,-0.032,102.0,106.0,101.0,13.4,1505.4,326.9,-0.7,1.8,2470.28,13.34,0.047,280.8
2020-07-21T02:43:03,42.805,6.029,-0.022,0.009,-0.042,104.0,107.0,100.0,13.4,1505.4,324.0,-0.7,1.8,2470.352,13.34,0.023,292.2
2020-07-21T02:46:03,42.805,6.029,0.038,0.01,0.052,102.0,106.0,101.0,13.3,1505.4,326.9,-0.7,1.8,2470.309,13.34,0.039,75.3
2020-07-21T02:49:03,42.805,6.029,-0.028,0.012,-0.011,102.0,107.0,100.0,13.3,1505.4,325.5,-0.7,1.8,2470.311,13.35,0.03,293.2
2020-07-21T02:52:03,42.805,6.029,0.029,0.008,0.013,103.0,108.0,102.0,13.4,1505.4,326.9,-0.8,1.8,2470.28,13.35,0.03,74.6
2020-07-21T02:55:03,42.805,6.029,0.015,0.001,0.009,103.0,107.0,100.0,13.4,1505.4,323.9,-0.7,1.8,2470.319,13.35,0.015,86.2
2020-07-21T02:58:03,42.805,6.029,0.036,0.009,0.043,103.0,109.0,101.0,13.4,1505.4,328.0,-0.7,1.8,2470.36,13.35,0.037,76.0
2020-07-21T03:04:03,42.805,6.029,0.004,0.001,0.021,104.0,105.0,100.0,13.4,1505.3,324.4,-0.7,1.8,2470.333,13.33,0.004,76.0
2020-07-21T03:07:03,42.805,6.029,0.014,-0.005,0.024,102.0,106.0,102.0,13.3,1505.3,327.6,-0.7,1.9,2470.34,13.33,0.014,109.6
2020-07-21T03:10:03,42.805,6.029,-0.012,-0.01,-0.039,103.0,106.0,102.0,13.4,1505.4,325.2,-0.7,1.9,2470.343,13.34,0.015,230.2
2020-07-21T03:13:03,42.805,6.029,-0.001,-0.002,-0.021,102.0,105.0,102.0,13.4,1505.4,327.0,-0.7,1.7,2470.314,13.34,0.002,206.6
2020-07-21T03:16:03,42.805,6.029,-0.019,-0.012,-0.037,103.0,107.0,100.0,13.3,1505.4,326.2,-0.7,1.8,2470.34,13.34,0.022,237.7
2020-07-21T03:19:03,42.805,6.029,-0.027,0.014,-0.026,104.0,106.0,104.0,13.4,1505.4,327.4,-0.7,1.8,2470.323,13.34,0.03,297.4
2020-07-21T03:22:03,42.805,6.029,0.02,0.019,0.01,103.0,106.0,100.0,13.4,1505.4,327.0,-0.7,1.8,2470.353,13.34,0.027,46.5
2020-07-21T03:25:03,42.805,6.029,0.005,0.005,-0.024,102.0,106.0,101.0,13.3,1505.4,328.3,-0.7,1.8,2470.343,13.34,0.007,45.0
2020-07-21T03:28:03,42.805,6.029,0.014,0.013,0.0,104.0,106.0,100.0,13.4,1505.4,327.2,-0.7,1.8,2470.32,13.34,0.019,47.1
2020-07-21T03:31:03,42.805,6.029,0.026,0.012,0.017,103.0,107.0,102.0,13.4,1505.4,328.0,-0.7,1.9,2470.317,13.34,0.028,65.2
2020-07-21T03:34:03,42.805,6.029,0.003,0.011,-0.044,103.0,106.0,101.0,13.4,1505.4,326.8,-0.7,1.8,2470.343,13.34,0.011,15.3
2020-07-21T03:37:03,42.805,6.029,0.003,0.006,0.001,103.0,106.0,101.0,13.4,1505.4,326.7,-0.7,1.8,2470.391,13.34,0.006,26.6
2020-07-21T03:40:03,42.805,6.029,-0.02,-0.002,-0.037,102.0,106.0,101.0,13.4,1505.4,326.4,-0.7,1.8,2470.309,13.34,0.02,264.3
2020-07-21T03:43:03,42.805,6.029,-0.025,0.017,-0.035,104.0,107.0,101.0,13.4,1505.4,326.5,-0.7,1.8,2470.3,13.34,0.03,304.2
2020-07-21T03:46:03,42.805,6.029,-0.017,0.011,-0.019,103.0,106.0,100.0,13.4,1505.4,328.0,-0.7,1.8,2470.347,13.34,0.02,302.9
2020-07-21T03:49:03,42.805,6.029,-0.026,0.008,-0.004,103.0,106.0,103.0,13.4,1505.4,324.9,-0.7,1.9,2470.344,13.34,0.027,287.1
2020-07-21T03:52:03,42.805,6.029,0.001,0.007,-0.002,103.0,106.0,101.0,13.4,1505.4,326.4,-0.7,1.8,2470.341,13.34,0.007,8.1
2020-07-21T03:55:03,42.805,6.029,0.007,-0.008,0.002,102.0,108.0,101.0,13.4,1505.4,325.8,-0.7,1.8,2470.356,13.34,0.01,138.8
2020-07-21T03:58:03,42.805,6.029,-0.001,0.006,-0.01,105.0,107.0,102.0,13.3,1505.4,324.7,-0.7,1.9,2470.361,13.34,0.006,350.5
2020-07-21T04:04:03,42.805,6.029,0.01,0.004,-0.009,104.0,107.0,100.0,13.4,1505.3,324.9,-0.7,1.9,2470.36,13.33,0.01,68.2
2020-07-21T04:07:03,42.805,6.029,0.001,0.004,-0.029,104.0,105.0,100.0,13.3,1505.3,325.5,-0.7,1.9,2470.371,13.33,0.004,14.0
2020-07-21T04:10:03,42.805,6.029,-0.018,0.005,-0.032,104.0,107.0,100.0,13.4,1505.4,324.8,-0.7,1.8,2470.364,13.34,0.018,285.5
2020-07-21T04:13:03,42.805,6.029,-0.019,-0.001,-0.023,103.0,106.0,101.0,13.3,1505.4,324.2,-0.7,1.8,2470.362,13.34,0.019,267.0
2020-07-21T04:16:03,42.805,6.029,0.011,0.013,0.008,102.0,108.0,100.0,13.3,1505.4,327.2,-0.7,1.8,2470.402,13.34,0.017,40.2
2020-07-21T04:19:03,42.805,6.029,0.009,-0.016,-0.003,102.0,106.0,101.0,13.4,1505.4,323.2,-0.7,1.8,2470.362,13.34,0.018,150.6
2020-07-21T04:22:03,42.805,6.029,-0.004,0.001,-0.007,104.0,107.0,100.0,13.3,1505.4,324.6,-0.7,1.8,2470.346,13.34,0.004,284.0
2020-07-21T04:25:03,42.805,6.029,-0.023,0.003,-0.023,102.0,107.0,101.0,13.3,1505.4,327.1,-0.7,1.9,2470.409,13.35,0.023,277.4
2020-07-21T04:28:03,42.805,6.029,0.025,-0.002,0.01,103.0,106.0,102.0,13.3,1505.4,326.7,-0.7,1.8,2470.344,13.35,0.025,94.6
2020-07-21T04:31:03,42.805,6.029,-0.029,0.012,-0.001,103.0,107.0,100.0,13.4,1505.4,326.5,-0.7,1.8,2470.379,13.34,0.031,292.5
2020-07-21T04:34:03,42.805,6.029,-0.017,0.017,-0.024,103.0,106.0,100.0,13.4,1505.4,326.9,-0.7,1.8,2470.371,13.34,0.024,315.0
2020-07-21T04:37:03,42.805,6.029,0.001,0.005,-0.001,106.0,106.0,101.0,13.4,1505.4,325.9,-0.7,1.8,2470.39,13.34,0.005,11.3
2020-07-21T04:40:03,42.805,6.029,0.014,0.001,0.031,105.0,106.0,104.0,13.4,1505.4,328.1,-0.7,1.8,2470.319,13.35,0.014,85.9
2020-07-21T04:43:03,42.805,6.029,0.05,0.006,0.048,104.0,107.0,101.0,13.4,1505.4,324.4,-0.7,1.9,2470.385,13.35,0.05,83.2
2020-07-21T04:46:03,42.805,6.029,0.027,0.02,0.016,105.0,106.0,101.0,13.4,1505.4,325.2,-0.7,1.8,2470.4,13.34,0.033,53.5
2020-07-21T04:49:03,42.805,6.029,0.004,0.012,0.02,104.0,107.0,102.0,13.4,1505.4,326.7,-0.7,1.8,2470.386,13.34,0.012,18.4
2020-07-21T04:52:03,42.805,6.029,0.052,0.004,0.042,103.0,108.0,101.0,13.4,1505.4,323.6,-0.7,1.8,2470.381,13.34,0.052,85.6
2020-07-21T04:55:03,42.805,6.029,0.014,-0.008,0.024,103.0,109.0,101.0,13.4,1505.4,326.7,-0.7,1.8,2470.413,13.35,0.016,119.7
2020-07-21T04:58:03,42.805,6.029,0.002,0.0,-0.001,105.0,108.0,100.0,13.4,1505.4,326.8,-0.7,1.8,2470.414,13.34,0.002,90.0
2020-07-21T05:04:03,42.805,6.029,0.038,0.0,0.021,102.0,107.0,101.0,13.3,1505.3,325.0,-0.7,1.8,2470.423,13.33,0.038,90.0
2020-07-21T05:07:03,42.805,6.029,0.047,0.003,0.039,101.0,108.0,101.0,13.3,1505.3,323.6,-0.7,1.8,2470.44,13.33,0.047,86.4
2020-07-21T05:10:03,42.805,6.029,0.064,0.013,0.041,104.0,107.0,102.0,13.3,1505.4,328.2,-0.7,1.8,2470.425,13.34,0.065,78.5
2020-07-21T05:13:03,42.805,6.029,0.0,0.015,0.021,103.0,107.0,100.0,13.4,1505.4,324.2,-0.7,1.8,2470.403,13.34,0.015,0.0
2020-07-21T05:16:03,42.805,6.029,0.062,0.019,0.045,103.0,106.0,100.0,13.4,1505.4,323.0,-0.7,1.8,2470.386,13.34,0.064,73.0
2020-07-21T05:19:03,42.805,6.029,0.023,0.013,0.038,104.0,106.0,101.0,13.4,1505.4,325.7,-0.7,1.8,2470.403,13.34,0.026,60.5
2020-07-21T05:22:03,42.805,6.029,0.071,0.018,0.066,104.0,106.0,101.0,13.4,1505.4,323.5,-0.7,1.8,2470.402,13.34,0.073,75.8
2020-07-21T05:25:03,42.805,6.029,0.033,0.007,0.034,103.0,106.0,101.0,13.4,1505.4,326.9,-0.7,1.8,2470.41,13.34,0.033,78.0
2020-07-21T05:28:03,42.805,6.029,0.0,-0.006,0.016,104.0,106.0,100.0,13.4,1505.4,325.7,-0.7,1.8,2470.416,13.34,0.006,180.0
2020-07-21T05:31:03,42.805,6.029,-0.011,-0.004,-0.073,103.0,107.0,102.0,13.4,1505.4,322.9,-0.7,1.8,2470.416,13.34,0.011,250.0
2020-07-21T05:34:03,42.805,6.029,-0.016,0.013,-0.058,103.0,107.0,101.0,13.4,1505.4,327.8,-0.7,1.8,2470.447,13.34,0.02,309.1
2020-07-21T05:37:03,42.805,6.029,-0.021,-0.005,-0.064,104.0,105.0,101.0,13.4,1505.4,324.5,-0.7,1.8,2470.408,13.34,0.021,256.6
2020-07-21T05:40:03,42.805,6.029,-0.025,0.019,-0.028,103.0,107.0,101.0,13.3,1505.4,326.7,-0.7,1.8,2470.388,13.34,0.031,307.2
2020-07-21T05:43:03,42.805,6.029,-0.026,0.007,-0.024,104.0,108.0,101.0,13.3,1505.4,323.0,-0.7,1.8,2470.419,13.34,0.026,285.1
2020-07-21T05:46:03,42.805,6.029,-0.026,-0.01,-0.031,103.0,106.0,101.0,13.3,1505.4,324.6,-0.7,1.8,2470.437,13.34,0.027,249.0
2020-07-21T05:49:03,42.805,6.029,-0.034,0.001,-0.012,102.0,108.0,100.0,13.3,1505.4,325.7,-0.7,1.8,2470.455,13.34,0.034,271.7
2020-07-21T05:52:03,42.805,6.029,-0.017,0.006,-0.049,104.0,109.0,101.0,13.4,1505.4,324.3,-0.7,1.8,2470.441,13.34,0.018,289.4
2020-07-21T05:55:03,42.805,6.029,-0.027,0.024,-0.033,103.0,107.0,101.0,13.4,1505.4,324.7,-0.7,1.8,2470.473,13.34,0.036,311.6
2020-07-21T05:58:03,42.805,6.029,-0.029,-0.005,-0.009,104.0,108.0,100.0,13.3,1505.4,323.4,-0.7,1.8,2470.425,13.34,0.029,260.2
2020-07-21T06:04:03,42.805,6.029,-0.004,-0.01,-0.002,104.0,105.0,100.0,13.4,1505.3,323.1,-0.8,1.8,2470.466,13.32,0.01,201.8
2020-07-21T06:07:03,42.805,6.029,-0.017,0.011,-0.01,103.0,106.0,102.0,13.4,1505.3,325.9,-0.7,1.9,2470.482,13.33,0.02,302.9
2020-07-21T06:10:03,42.805,6.029,-0.024,0.0,-0.008,103.0,105.0,100.0,13.4,1505.3,325.9,-0.7,1.9,2470.474,13.33,0.024,270.0
2020-07-21T06:13:03,42.805,6.029,0.01,-0.003,-0.028,103.0,106.0,102.0,13.4,1505.3,327.2,-0.7,1.8,2470.449,13.33,0.01,106.7
2020-07-21T06:16:03,42.805,6.029,-0.02,0.003,-0.036,103.0,106.0,101.0,13.4,1505.4,325.2,-0.7,1.8,2470.43,13.34,0.02,278.5
2020-07-21T06:19:03,42.805,6.029,-0.001,0.01,0.0,101.0,103.0,100.0,13.4,1505.4,328.1,-0.7,1.9,2470.51,13.34,0.01,354.3
2020-07-21T06:22:03,42.805,6.029,-0.049,0.026,-0.037,102.0,104.0,100.0,13.4,1505.4,326.8,-0.7,1.8,2470.476,13.34,0.055,297.9
2020-07-21T06:25:03,42.805,6.029,-0.027,0.01,-0.016,103.0,105.0,100.0,13.3,1505.4,327.4,-0.7,1.8,2470.461,13.34,0.028,290.3
2020-07-21T06:28:03,42.805,6.029,-0.012,0.002,-0.035,103.0,105.0,100.0,13.4,1505.4,324.1,-0.7,1.8,2470.437,13.34,0.012,279.5
2020-07-21T06:31:03,42.805,6.029,-0.044,0.014,-0.042,102.0,105.0,100.0,13.4,1505.4,328.3,-0.7,1.9,2470.501,13.34,0.046,287.6
2020-07-21T06:34:03,42.805,6.029,-0.006,0.01,0.003,102.0,106.0,100.0,13.3,1505.4,327.2,-0.7,1.8,2470.48,13.34,0.011,329.0
2020-07-21T06:37:03,42.805,6.029,0.014,0.011,0.013,103.0,103.0,101.0,13.3,1505.4,325.4,-0.7,1.8,2470.452,13.34,0.017,51.8
2020-07-21T06:40:03,42.805,6.029,0.005,0.002,-0.013,102.0,105.0,101.0,13.4,1505.4,328.1,-0.7,1.8,2470.437,13.34,0.005,68.2
2020-07-21T06:43:03,42.805,6.029,-0.032,0.012,-0.062,102.0,106.0,100.0,13.3,1505.4,325.5,-0.7,1.8,2470.466,13.34,0.034,290.6
2020-07-21T06:46:03,42.805,6.029,-0.007,0.011,-0.02,102.0,106.0,101.0,13.4,1505.4,324.4,-0.7,1.9,2470.471,13.34,0.013,327.5
2020-07-21T06:49:03,42.805,6.029,0.002,0.001,-0.028,102.0,105.0,100.0,13.4,1505.4,326.5,-0.7,1.8,2470.463,13.34,0.002,63.4
2020-07-21T06:52:03,42.805,6.029,0.006,0.028,0.027,103.0,104.0,100.0,13.3,1505.4,325.7,-0.7,1.8,2470.457,13.34,0.028,12.1
2020-07-21T06:55:03,42.805,6.029,0.0,0.011,0.003,104.0,104.0,100.0,13.3,1505.4,324.2,-0.7,1.8,2470.461,13.34,0.011,0.0
2020-07-21T06:58:03,42.805,6.029,-0.029,0.009,-0.006,102.0,106.0,100.0,13.4,1505.4,324.4,-0.7,1.9,2470.447,13.34,0.03,287.2
2020-07-21T07:04:03,42.805,6.029,-0.025,-0.017,-0.04,102.0,105.0,101.0,13.3,1505.3,323.0,-0.7,1.8,2470.464,13.32,0.03,235.8
2020-07-21T07:07:03,42.805,6.029,-0.028,0.002,-0.018,104.0,104.0,100.0,13.4,1505.3,324.3,-0.7,1.8,2470.463,13.33,0.028,274.1
2020-07-21T07:10:03,42.805,6.029,0.019,0.017,-0.008,104.0,104.0,101.0,13.4,1505.3,327.2,-0.7,1.8,2470.447,13.33,0.025,48.2
2020-07-21T07:13:03,42.805,6.029,-0.004,0.008,-0.012,103.0,104.0,100.0,13.4,1505.3,326.0,-0.7,1.8,2470.461,13.33,0.008,333.4
2020-07-21T07:16:03,42.805,6.029,-0.001,0.01,-0.006,103.0,106.0,99.0,13.4,1505.4,325.3,-0.7,1.9,2470.473,13.34,0.01,354.3
2020-07-21T07:19:03,42.805,6.029,-0.029,-0.008,-0.073,103.0,105.0,102.0,13.4,1505.4,324.0,-0.7,1.8,2470.457,13.34,0.03,254.6
2020-07-21T07:22:03,42.805,6.029,-0.03,0.024,-0.033,104.0,107.0,100.0,13.4,1505.4,327.3,-0.7,1.8,2470.496,13.34,0.038,308.7
2020-07-21T07:25:03,42.805,6.029,0.004,0.0,-0.005,102.0,106.0,100.0,13.4,1505.4,326.9,-0.7,1.8,2470.487,13.34,0.004,90.0
2020-07-21T07:28:03,42.805,6.029,-0.033,-0.018,-0.055,103.0,105.0,100.0,13.4,1505.4,324.0,-0.7,1.8,2470.456,13.34,0.037,241.4
2020-07-21T07:31:03,42.805,6.029,-0.047,-0.015,-0.038,103.0,105.0,100.0,13.4,1505.4,324.2,-0.7,1.8,2470.477,13.34,0.049,252.3
2020-07-21T07:34:03,42.805,6.029,-0.008,0.009,-0.029,102.0,105.0,100.0,13.3,1505.4,323.2,-0.7,1.8,2470.453,13.34,0.012,318.4
2020-07-21T07:37:03,42.805,6.029,0.006,0.015,-0.011,102.0,103.0,100.0,13.4,1505.4,325.7,-0.7,1.9,2470.437,13.34,0.016,21.8
2020-07-21T07:40:03,42.805,6.029,-0.044,0.008,-0.042,103.0,105.0,99.0,13.4,1505.4,324.5,-0.7,1.8,2470.49,13.34,0.044,280.3
2020-07-21T07:43:03,42.805,6.029,-0.029,0.001,-0.03,102.0,106.0,100.0,13.4,1505.4,323.2,-0.7,1.8,2470.469,13.34,0.029,272.0
2020-07-21T07:46:03,42.805,6.029,0.007,-0.001,0.006,103.0,105.0,101.0,13.4,1505.4,325.1,-0.7,1.8,2470.428,13.34,0.007,98.1
2020-07-21T07:49:03,42.805,6.029,-0.017,0.03,-0.032,103.0,106.0,101.0,13.4,1505.4,326.3,-0.7,1.8,2470.449,13.34,0.034,330.5
2020-07-21T07:52:03,42.805,6.029,-0.042,-0.001,-0.033,103.0,106.0,101.0,13.4,1505.4,325.1,-0.7,1.8,2470.457,13.34,0.042,268.6
2020-07-21T07:55:03,42.805,6.029,-0.011,-0.002,0.011,103.0,105.0,101.0,13.3,1505.4,323.0,-0.7,1.8,2470.457,13.34,0.011,259.7
2020-07-21T07:58:03,42.805,6.029,-0.012,0.005,0.001,104.0,107.0,100.0,13.4,1505.4,328.0,-0.7,1.9,2470.462,13.34,0.013,292.6
2020-07-21T08:04:03,42.805,6.029,-0.025,0.005,-0.028,104.0,106.0,100.0,13.3,1505.3,325.1,-0.7,1.8,2470.49,13.32,0.025,281.3
2020-07-21T08:07:03,42.805,6.029,-0.036,0.014,-0.052,103.0,106.0,99.0,13.4,1505.3,324.3,-0.7,1.8,2470.481,13.32,0.038,291.2
2020-07-21T08:10:03,42.805,6.029,-0.034,0.006,-0.058,102.0,107.0,100.0,13.4,1505.3,327.9,-0.7,1.8,2470.406,13.33,0.034,280.0
2020-07-21T08:13:03,42.805,6.029,-0.03,-0.004,-0.025,104.0,106.0,99.0,13.4,1505.3,324.3,-0.7,1.8,2470.454,13.33,0.03,262.4
2020-07-21T08:16:03,42.805,6.029,-0.032,-0.005,-0.042,104.0,106.0,100.0,13.4,1505.3,323.1,-0.7,1.8,2470.483,13.33,0.032,261.1
2020-07-21T08:19:03,42.805,6.029,-0.067,0.02,-0.044,103.0,107.0,101.0,13.4,1505.3,327.4,-0.7,1.8,2470.483,13.33,0.069,286.6
2020-07-21T08:22:03,42.805,6.029,-0.044,0.006,-0.035,103.0,106.0,101.0,13.4,1505.3,325.5,-0.7,1.8,2470.45,13.33,0.044,277.8
2020-07-21T08:25:03,42.805,6.029,-0.036,-0.001,-0.056,103.0,107.0,101.0,13.4,1505.3,324.9,-0.7,1.8,2470.447,13.33,0.036,268.4
2020-07-21T08:28:03,42.805,6.029,-0.076,0.003,-0.064,103.0,107.0,101.0,13.4,1505.3,323.8,-0.7,1.8,2470.478,13.33,0.076,272.3
2020-07-21T08:31:03,42.805,6.029,-0.042,-0.011,-0.047,104.0,106.0,101.0,13.3,1505.3,323.6,-0.7,1.9,2470.457,13.33,0.043,255.3
2020-07-21T08:34:03,42.805,6.029,-0.028,-0.011,-0.075,103.0,107.0,100.0,13.3,1505.3,325.1,-0.7,1.8,2470.45,13.33,0.03,248.6
2020-07-21T08:37:03,42.805,6.029,-0.062,0.024,-0.068,104.0,108.0,101.0,13.4,1505.3,327.5,-0.7,1.8,2470.463,13.33,0.066,291.2
2020-07-21T08:40:03,42.805,6.029,-0.079,0.013,-0.022,104.0,108.0,100.0,13.4,1505.3,326.3,-0.7,1.8,2470.44,13.33,0.08,279.3
2020-07-21T08:43:03,42.805,6.029,-0.062,0.008,-0.064,103.0,107.0,101.0,13.4,1505.3,328.1,-0.7,1.8,2470.411,13.33,0.062,277.3
2020-07-21T08:46:03,42.805,6.029,-0.029,0.016,-0.036,103.0,108.0,102.0,13.4,1505.3,326.5,-0.7,1.8,2470.44,13.33,0.033,298.9
2020-07-21T08:49:03,42.805,6.029,-0.031,0.003,-0.016,103.0,106.0,101.0,13.3,1505.3,325.0,-0.7,1.8,2470.416,13.33,0.031,275.5
2020-07-21T08:52:03,42.805,6.029,-0.052,-0.007,-0.049,103.0,107.0,101.0,13.4,1505.3,324.3,-0.7,1.9,2470.426,13.33,0.052,262.3
2020-07-21T08:55:03,42.805,6.029,-0.052,-0.002,-0.103,104.0,106.0,100.0,13.3,1505.3,322.6,-0.7,1.8,2470.406,13.33,0.052,267.8
2020-07-21T08:58:03,42.805,6.029,-0.043,0.017,-0.047,110.0,107.0,104.0,13.4,1505.3,325.9,-0.7,1.8,2470.415,13.33,0.046,291.6
2020-07-21T09:04:03,42.805,6.029,-0.061,0.005,-0.062,103.0,107.0,101.0,13.3,1505.3,323.8,-0.8,1.8,2470.442,13.32,0.061,274.7
2020-07-21T09:07:03,42.805,6.029,-0.044,0.014,-0.037,102.0,108.0,100.0,13.4,1505.3,325.4,-0.7,1.9,2470.462,13.32,0.046,287.6
2020-07-21T09:10:03,42.805,6.029,-0.033,0.001,-0.047,103.0,109.0,101.0,13.4,1505.3,328.1,-0.7,1.8,2470.455,13.33,0.033,271.7
2020-07-21T09:13:03,42.805,6.029,-0.029,0.006,-0.044,102.0,108.0,101.0,13.4,1505.3,323.2,-0.7,1.8,2470.443,13.33,0.029,281.7
2020-07-21T09:16:03,42.805,6.029,-0.067,-0.008,-0.058,103.0,107.0,100.0,13.3,1505.3,326.4,-0.7,1.8,2470.433,13.33,0.067,263.2
2020-07-21T09:19:03,42.805,6.029,-0.011,0.018,-0.01,102.0,108.0,100.0,13.4,1505.3,325.6,-0.7,1.8,2470.423,13.33,0.021,328.6
2020-07-21T09:22:03,42.805,6.029,-0.051,0.012,-0.064,104.0,106.0,102.0,13.4,1505.3,325.9,-0.7,1.8,2470.431,13.33,0.052,283.2
2020-07-21T09:25:03,42.805,6.029,-0.042,0.002,-0.012,104.0,108.0,100.0,13.3,1505.4,323.7,-0.7,1.9,2470.439,13.34,0.042,272.7
2020-07-21T09:28:03,42.805,6.029,-0.033,0.003,-0.042,104.0,107.0,100.0,13.4,1505.4,326.5,-0.7,1.8,2470.402,13.34,0.033,275.2
2020-07-21T09:31:03,42.805,6.029,-0.041,0.02,-0.023,102.0,108.0,101.0,13.4,1505.4,327.7,-0.7,1.8,2470.457,13.34,0.045,296.0
2020-07-21T09:34:03,42.805,6.029,-0.041,0.023,-0.009,102.0,108.0,101.0,13.4,1505.3,323.2,-0.7,1.8,2470.439,13.33,0.047,299.3
2020-07-21T09:37:03,42.805,6.029,-0.049,0.016,-0.089,102.0,107.0,100.0,13.4,1505.3,326.4,-0.7,1.8,2470.401,13.33,0.051,288.1
2020-07-21T09:40:03,42.805,6.029,-0.045,0.013,-0.028,104.0,106.0,100.0,13.4,1505.3,324.7,-0.7,1.8,2470.412,13.33,0.046,286.1
2020-07-21T09:43:03,42.805,6.029,-0.056,0.01,-0.042,105.0,107.0,101.0,13.4,1505.3,327.9,-0.7,1.9,2470.401,13.33,0.056,280.1
2020-07-21T09:46:03,42.805,6.029,-0.046,0.02,-0.028,103.0,107.0,101.0,13.4,1505.3,323.8,-0.7,1.8,2470.418,13.33,0.05,293.5
2020-07-21T09:49:03,42.805,6.029,-0.049,0.01,-0.059,102.0,107.0,102.0,13.4,1505.3,323.1,-0.7,1.8,2470.407,13.33,0.05,281.5
2020-07-21T09:52:03,42.805,6.029,-0.04,0.008,-0.021,103.0,107.0,101.0,13.3,1505.3,324.6,-0.7,1.8,2470.383,13.33,0.04,281.3
2020-07-21T09:55:03,42.805,6.029,-0.036,-0.008,-0.065,104.0,106.0,102.0,13.3,1505.3,323.1,-0.7,1.8,2470.389,13.33,0.036,257.5
2020-07-21T09:58:03,42.805,6.029,-0.014,0.02,-0.017,103.0,107.0,101.0,13.3,1505.3,323.5,-0.7,1.9,2470.35,13.33,0.024,325.0